[[{"header":{"parameterUnit":"m.s-1","parameterCategory":1,"la1":30.2991,"la2":30.254,"lo1":-89.0895,"lo2":-89.0444,"dy":0.0017,"dx":0.0017,"nx":28,"ny":28,"refTime":"2025-03-30T21:00:00:Z","depth":0,"parameterNumber":2,"parameterNumberName":"U-component_of_WINDS"},"data":[0,0,0,0,0,0,0,0,0,0,0,0,0,0,0,0,0,0,0,0,0,0,0,0,0,0,0,0,0,0,0,0,0,0,0,0,0,0,0,0,0,0,0,0,0,0,0,0,0,0,0,0,0,0,0,0,0,0,-4.3546,-4.3547,0,-4.3633,-4.3634,-4.3635,-4.359,-4.3587,-4.3585,-4.3583,-4.367,-4.3675,-4.3679,0,0,0,0,0,0,0,0,0,0,0,0,0,-4.3336,-4.334,-4.3546,-4.3547,-4.3548,-4.3633,-4.3634,-4.3635,-4.359,-4.3587,-4.3584,-4.3582,-4.3669,-4.3674,-4.368,0,0,0,0,0,0,0,0,0,0,0,0,0,-4.3425,-4.3341,-4.3545,-4.3536,-4.3536,-4.3632,-4.3634,-4.3635,-4.3591,-4.3587,-4.3584,-4.358,-4.3667,-4.3674,-4.368,-4.3792,0,0,-4.3701,-4.3704,0,0,0,0,0,0,0,0,-4.342,-4.3433,-4.3536,-4.3536,-4.3537,-4.3597,-4.3592,-4.3688,-4.3591,-4.357,-4.3583,-4.3579,-4.3649,-4.3657,-4.3681,-4.3796,-4.3799,-4.3702,-4.3706,-4.3709,-4.371,0,0,0,0,0,0,0,-4.3414,-4.3429,-4.358,-4.3537,-4.3538,-4.3525,-4.3534,-4.361,-4.3628,-4.3571,-4.3568,-4.3579,-4.3648,-4.3674,-4.3682,-4.3801,-4.3701,-4.3707,-4.3712,-4.3714,-4.4006,-4.4009,0,0,0,0,0,0,-4.3409,-4.3424,-4.3577,-4.3583,-4.3469,-4.3532,-4.3542,-4.3581,-4.3627,-4.363,-4.3582,-4.3577,-4.3664,-4.3675,-4.3685,-4.3815,-4.3708,-4.3715,-4.3719,-4.4002,-4.4007,-4.4011,0,0,0,0,0,0,-4.3404,-4.3423,-4.3574,-4.3503,-4.3521,-4.3539,-4.3583,-4.3585,-4.3611,-4.3635,-4.3637,-4.3606,-4.3662,-4.3676,-4.3764,-4.3817,-4.3718,-4.3724,-4.3998,-4.4003,-4.4009,-4.4077,0,0,0,0,0,0,-4.3399,-4.3422,-4.3466,-4.3504,-4.3525,-4.3653,-4.3587,-4.3589,-4.3623,-4.3616,-4.3658,-4.3661,-4.366,-4.3755,-4.3771,-4.3825,-4.3729,-4.3993,-4.4,-4.4007,-4.407,-4.4084,-4.4096,0,0,0,0,0,-4.3391,-4.3482,-4.3468,-4.3487,-4.358,-4.3656,-4.3668,-4.3666,-4.3627,-4.367,-4.3685,-4.366,-4.3809,-4.3764,-4.3782,-4.3839,-4.399,-4.3998,-4.4006,-4.4064,-4.4081,-4.4096,0,0,0,0,0,0,-4.345,-4.3487,-4.3472,-4.3578,-4.3614,-4.3649,-4.3703,-4.3685,-4.3733,-4.3725,-4.372,-4.3729,-4.382,-4.3839,-4.3788,-4.3946,-4.3893,-4.3905,-4.3931,-4.3947,-4.396,-4.3953,-4.3735,0,0,0,0,0,-4.3475,-4.3535,-4.3564,-4.3655,-4.3674,-4.3685,-4.3719,-4.3713,-4.375,-4.3765,-4.3787,-4.3823,-4.3877,-4.3914,-4.3966,-4.4073,-4.4079,-4.412,-4.4133,-4.4144,-4.4154,-4.4207,-4.4225,-4.4038,-4.4038,-4.4038,0,0,-4.3528,-4.3556,-4.3594,-4.3667,-4.3695,-4.3754,-4.3699,-4.3766,-4.3809,-4.3776,-4.3859,-4.3876,-4.3916,-4.4013,-4.4057,-4.4031,-4.4207,-4.4154,-4.4163,-4.4167,-4.4218,-4.4235,-4.4251,-4.4044,-4.4043,-4.4042,0,0,-4.3655,-4.3683,-4.376,-4.3788,-4.3829,-4.3836,-4.3854,-4.3891,-4.39,-4.3984,-4.3959,-4.401,-4.4106,-4.4133,-4.416,-4.4293,-4.427,-4.431,-4.4378,-4.443,-4.4444,-4.4457,-4.4501,-4.4517,-4.432,-4.432,-4.432,0,-4.3715,-4.3806,-4.3801,-4.3869,-4.39,-4.3871,-4.3947,-4.3974,-4.4031,-4.4052,-4.4023,-4.4138,-4.4164,-4.4264,-4.4296,-4.432,-4.4338,-4.4305,-4.4443,-4.4456,-4.4468,-4.4509,-4.4526,-4.4325,-4.4324,-4.4324,-4.4323,0,-4.3876,-4.3938,-4.3995,-4.4049,-4.4086,-4.4158,-4.4162,-4.4201,-4.4191,-4.42,-4.4284,-4.4313,-4.4368,-4.4392,-4.4384,-4.449,-4.4472,-4.4443,-4.4389,-4.449,-4.4528,-4.4545,-4.4331,-4.4329,-4.4328,-4.4327,0,0,-4.4043,-4.4091,-4.4112,-4.4134,-4.4176,-4.4223,-4.4292,-4.4345,-4.4377,-4.4416,-4.4471,-4.455,-4.4522,-4.4552,-4.4547,-4.4593,-4.4691,-4.4557,-4.4558,-4.4578,-4.4805,-4.4825,-4.4844,-4.4677,-4.468,-4.4682,-4.4801,0,-4.417,-4.429,-4.4286,-4.4397,-4.4453,-4.4424,-4.4483,-4.4514,-4.4524,-4.4571,-4.4581,-4.4636,-4.4596,-4.4613,-4.4658,-4.467,-4.4736,-4.4662,-4.4725,-4.4728,-4.4714,-4.4865,-4.4887,-4.4998,-4.4816,-4.4819,-4.4821,0,-4.4334,-4.4377,-4.4493,-4.4523,-4.4546,-4.4599,-4.4645,-4.4692,-4.4725,-4.4728,-4.476,-4.4746,-4.4813,-4.4758,-4.4848,-4.4797,-4.4823,-4.4832,-4.4836,-4.484,-4.4779,-4.487,-4.5033,-4.5049,-4.4845,-4.4843,-4.4842,0,-4.444,-4.4527,-4.4607,-4.4627,-4.4665,-4.4702,-4.4719,-4.4749,-4.478,-4.482,-4.4839,-4.4887,-4.4912,-4.4949,-4.4947,-4.4908,-4.5036,-4.4983,-4.5038,-4.5038,-4.5065,-4.5063,-4.5232,-4.5087,-4.5086,-4.5086,-4.5086,0,-4.4581,-4.4652,-4.4654,-4.4703,-4.478,-4.4774,-4.4851,-4.4864,-4.489,-4.4939,-4.4918,-4.4965,-4.4961,-4.5007,-4.5006,-4.5078,-4.509,-4.5093,-4.5091,-4.5093,-4.5092,-4.5108,-4.51,-4.509,-4.5089,-4.5088,-4.5088,0,-4.4712,-4.4717,-4.4801,-4.4828,-4.4837,-4.4892,-4.4915,-4.496,-4.4966,-4.5028,-4.5042,-4.5052,-4.5105,-4.5107,-4.5168,-4.5167,-4.5253,-4.5245,-4.5242,-4.5239,-4.5294,-4.5287,-4.5477,-4.5499,-4.5342,-4.5343,-4.5345,0,-4.48,-4.4854,-4.4886,-4.4917,-4.4936,-4.4987,-4.5018,-4.5013,-4.5045,-4.5084,-4.5124,-4.5174,-4.5214,-4.5299,-4.531,-4.5356,-4.5346,-4.5409,-4.5353,-4.5351,-4.5343,-4.5338,-4.5342,-4.5419,-4.5421,-4.5423,-4.5424,0,-4.4955,-4.4954,-4.4999,-4.5043,-4.508,-4.5115,-4.5148,-4.5174,-4.5173,-4.521,-4.5263,-4.5293,-4.5354,-4.5403,-4.5446,-4.5462,-4.5442,-4.5441,-4.5456,-4.5458,-4.5452,-4.5452,-4.5269,-4.5437,-4.5436,-4.5435,-4.5434,-4.5433,-4.5066,-4.511,-4.5138,-4.5188,-4.5211,-4.5241,-4.5283,-4.5294,-4.5338,-4.5387,-4.5381,-4.5439,-4.5466,-4.5522,-4.5541,-4.5585,-4.5563,-4.5585,-4.559,-4.5595,-4.5599,-4.5447,-4.5593,-4.5593,-4.5592,-4.5592,-4.5592,0,-4.5216,-4.5232,-4.5278,-4.5323,-4.5361,-4.5338,-4.5372,-4.5405,-4.5456,-4.5484,-4.5522,-4.5581,-4.5627,-4.5641,-4.5686,-4.5718,-4.5709,-4.5729,-4.5725,-4.5728,-4.5618,-4.5599,-4.5735,-4.5735,-4.5735,-4.5735,-4.5735,-4.5735,-4.5299,-4.5372,-4.5373,-4.5456,-4.5471,-4.5527,-4.5548,-4.5574,-4.5595,-4.5661,-4.57,-4.5708,-4.5729,-4.5774,-4.5815,-4.5817,-4.5833,-4.5856,-4.5855,-4.5751,-4.5737,-4.5723,-4.5705,-4.5861,-4.5861,-4.5961,-4.5962,-4.5963]},{"header":{"parameterUnit":"m.s-1","parameterCategory":1,"la1":30.2991,"la2":30.254,"lo1":-89.0895,"lo2":-89.0444,"dy":0.0017,"dx":0.0017,"nx":28,"ny":28,"refTime":"2025-03-30T21:00:00:Z","depth":0,"parameterNumber":3,"parameterNumberName":"V-component_of_WINDS"},"data":[0,0,0,0,0,0,0,0,0,0,0,0,0,0,0,0,0,0,0,0,0,0,0,0,0,0,0,0,0,0,0,0,0,0,0,0,0,0,0,0,0,0,0,0,0,0,0,0,0,0,0,0,0,0,0,0,0,0,-0.1082,-0.1085,0,-0.1376,-0.1379,-0.1383,-0.1419,-0.1416,-0.1413,-0.141,-0.1725,-0.1736,-0.1746,0,0,0,0,0,0,0,0,0,0,0,0,0,-0.0562,-0.0571,-0.1081,-0.1085,-0.1089,-0.1375,-0.1379,-0.1383,-0.1419,-0.1415,-0.1412,-0.1409,-0.1721,-0.1734,-0.1747,0,0,0,0,0,0,0,0,0,0,0,0,0,-0.0815,-0.0574,-0.1081,-0.1141,-0.1149,-0.1374,-0.138,-0.1385,-0.142,-0.1415,-0.1411,-0.1407,-0.1717,-0.1733,-0.1749,-0.194,0,0,-0.18,-0.1807,0,0,0,0,0,0,0,0,-0.0801,-0.0834,-0.1128,-0.1137,-0.1147,-0.1356,-0.1312,-0.1571,-0.1421,-0.1317,-0.141,-0.1405,-0.1606,-0.1632,-0.1697,-0.1954,-0.1968,-0.1802,-0.1812,-0.1819,-0.1824,0,0,0,0,0,0,0,-0.0783,-0.0822,-0.1198,-0.1132,-0.1144,-0.1157,-0.1188,-0.1361,-0.1483,-0.1326,-0.1329,-0.1363,-0.1611,-0.1681,-0.1705,-0.1972,-0.1801,-0.1816,-0.1826,-0.1833,-0.24,-0.2405,0,0,0,0,0,0,-0.0753,-0.0807,-0.1189,-0.1207,-0.0959,-0.1169,-0.1204,-0.1293,-0.1481,-0.1506,-0.1366,-0.1363,-0.1655,-0.1685,-0.1716,-0.195,-0.1819,-0.1834,-0.1844,-0.2395,-0.2401,-0.2406,0,0,0,0,0,0,-0.0741,-0.0786,-0.1177,-0.1008,-0.1059,-0.1183,-0.1283,-0.1301,-0.1371,-0.1512,-0.1535,-0.1415,-0.1652,-0.1693,-0.1882,-0.1961,-0.1842,-0.1857,-0.2389,-0.2397,-0.2404,-0.242,0,0,0,0,0,0,-0.0726,-0.0782,-0.0853,-0.1009,-0.1067,-0.1335,-0.1287,-0.131,-0.1398,-0.1397,-0.1563,-0.1587,-0.1652,-0.1857,-0.1899,-0.1982,-0.187,-0.2382,-0.2392,-0.2401,-0.2413,-0.2427,-0.2439,0,0,0,0,0,-0.0708,-0.0849,-0.0856,-0.0902,-0.1158,-0.134,-0.1373,-0.1442,-0.1405,-0.1479,-0.1568,-0.1581,-0.1946,-0.1876,-0.1924,-0.2013,-0.2378,-0.239,-0.2401,-0.2407,-0.2424,-0.2439,0,0,0,0,0,0,-0.0704,-0.0871,-0.0881,-0.1076,-0.1193,-0.1345,-0.144,-0.1458,-0.1592,-0.1586,-0.1669,-0.1706,-0.1893,-0.1973,-0.1892,-0.2207,-0.2159,-0.218,-0.2147,-0.2165,-0.2178,-0.2155,-0.1884,0,0,0,0,0,-0.0725,-0.0855,-0.0995,-0.1154,-0.1212,-0.1316,-0.1398,-0.1439,-0.1566,-0.1617,-0.1721,-0.1846,-0.1989,-0.2082,-0.2221,-0.2424,-0.2462,-0.2509,-0.2522,-0.2532,-0.255,-0.2663,-0.2686,-0.2444,-0.2444,-0.2444,0,0,-0.0772,-0.0879,-0.0957,-0.1156,-0.1251,-0.1387,-0.1357,-0.1503,-0.1605,-0.1641,-0.1824,-0.1905,-0.2051,-0.2248,-0.234,-0.232,-0.2625,-0.2547,-0.2554,-0.2567,-0.2677,-0.27,-0.272,-0.2452,-0.245,-0.2449,0,0,-0.0926,-0.1019,-0.1161,-0.1256,-0.1399,-0.1467,-0.15,-0.165,-0.1703,-0.1888,-0.1917,-0.2043,-0.2287,-0.2389,-0.2473,-0.2663,-0.268,-0.2706,-0.2775,-0.2884,-0.2903,-0.2921,-0.2988,-0.3011,-0.2723,-0.2723,-0.2724,0,-0.0967,-0.1168,-0.1233,-0.1376,-0.1463,-0.1496,-0.1642,-0.1733,-0.1916,-0.1977,-0.1951,-0.2256,-0.2357,-0.2578,-0.2623,-0.2691,-0.2734,-0.2688,-0.2895,-0.2913,-0.293,-0.2995,-0.302,-0.2726,-0.2725,-0.2725,-0.2725,0,-0.1211,-0.135,-0.1449,-0.1618,-0.1717,-0.1861,-0.1951,-0.2044,-0.2077,-0.2148,-0.2337,-0.2458,-0.2622,-0.2677,-0.2714,-0.2904,-0.2887,-0.2877,-0.283,-0.2954,-0.3017,-0.3042,-0.2729,-0.2728,-0.2727,-0.2727,0,0,-0.1373,-0.1573,-0.1609,-0.1685,-0.1845,-0.1956,-0.2102,-0.2257,-0.2335,-0.246,-0.2586,-0.279,-0.2781,-0.2876,-0.2924,-0.302,-0.3162,-0.2999,-0.3004,-0.3024,-0.3378,-0.3384,-0.3412,-0.3174,-0.3179,-0.3183,-0.3366,0,-0.1544,-0.18,-0.1862,-0.2082,-0.2212,-0.2245,-0.2373,-0.2486,-0.2556,-0.268,-0.276,-0.2903,-0.288,-0.2938,-0.3034,-0.3124,-0.3234,-0.3112,-0.3294,-0.33,-0.3255,-0.3445,-0.3452,-0.3619,-0.3391,-0.3395,-0.3398,0,-0.1779,-0.1903,-0.2134,-0.2274,-0.2332,-0.2444,-0.2591,-0.2707,-0.2837,-0.2882,-0.2986,-0.3024,-0.3181,-0.3125,-0.3343,-0.3258,-0.3337,-0.3393,-0.3401,-0.3421,-0.3356,-0.347,-0.3674,-0.3698,-0.3438,-0.3434,-0.3432,0,-0.1872,-0.2098,-0.2265,-0.233,-0.2498,-0.2577,-0.2651,-0.2776,-0.2865,-0.2994,-0.3053,-0.3201,-0.3282,-0.3397,-0.3475,-0.3428,-0.3686,-0.3638,-0.373,-0.3728,-0.3783,-0.3779,-0.4003,-0.3834,-0.3834,-0.3833,-0.3833,0,-0.2057,-0.2198,-0.2309,-0.2412,-0.2571,-0.2642,-0.2799,-0.2875,-0.2985,-0.3106,-0.3145,-0.3259,-0.3354,-0.3482,-0.3544,-0.3715,-0.3752,-0.3794,-0.3809,-0.379,-0.3785,-0.3843,-0.3834,-0.384,-0.3839,-0.3837,-0.3836,0,-0.2188,-0.2268,-0.2452,-0.2595,-0.2634,-0.2745,-0.2868,-0.2971,-0.3041,-0.3194,-0.3234,-0.3347,-0.3498,-0.3586,-0.378,-0.3821,-0.401,-0.4021,-0.3965,-0.3971,-0.4058,-0.4048,-0.4327,-0.4368,-0.4172,-0.4174,-0.4175,0,-0.2301,-0.2409,-0.2561,-0.2642,-0.2715,-0.2847,-0.2936,-0.3011,-0.3103,-0.3257,-0.3342,-0.3494,-0.362,-0.3862,-0.3963,-0.4111,-0.4125,-0.4212,-0.4148,-0.4125,-0.4126,-0.4118,-0.4129,-0.4224,-0.4225,-0.4227,-0.4228,0,-0.2492,-0.2525,-0.2649,-0.2788,-0.2892,-0.3006,-0.3119,-0.3185,-0.3279,-0.3381,-0.3533,-0.363,-0.3824,-0.3976,-0.4131,-0.4213,-0.4237,-0.4247,-0.4276,-0.4258,-0.4221,-0.4241,-0.3994,-0.4241,-0.4239,-0.4238,-0.4238,-0.4237,-0.2618,-0.2714,-0.2835,-0.2972,-0.3064,-0.3169,-0.3271,-0.3352,-0.3479,-0.3639,-0.3677,-0.3837,-0.3965,-0.4175,-0.426,-0.4389,-0.4374,-0.4417,-0.4428,-0.4437,-0.4438,-0.4199,-0.4418,-0.4418,-0.4417,-0.4417,-0.4417,0,-0.281,-0.2888,-0.3014,-0.3168,-0.3276,-0.3284,-0.341,-0.3501,-0.364,-0.3755,-0.3876,-0.4051,-0.4198,-0.4309,-0.446,-0.4542,-0.4557,-0.4579,-0.4574,-0.4592,-0.4443,-0.4402,-0.4564,-0.4564,-0.4564,-0.4564,-0.4564,-0.4564,-0.2923,-0.3086,-0.3133,-0.3343,-0.3423,-0.3576,-0.3647,-0.3744,-0.3835,-0.4027,-0.4147,-0.4217,-0.4331,-0.449,-0.4626,-0.4655,-0.4709,-0.4729,-0.476,-0.4619,-0.4603,-0.4588,-0.455,-0.474,-0.4741,-0.4899,-0.49,-0.4901]}]]